Temperature
21 21 21 21 24 25 23 23 24 23 23 22 22 22 22 22 21 20 17 17 17 16 16 17 17 17 17 17 17 17 17 17 17 17 17 17 18 17 17 17 17 17 17 17 17 17 17 17 17
21 22 21 23 25 24 23 23 23 23 22 22 21 22 22 20 19 18 17 16 16 16 16 16 17 17 17 17 17 17 17 17 17 17 17 17 17 17 17 17 17 17 17 17 17 17 17 17 17
22 22 22 25 24 24 23 23 23 22 22 22 22 21 21 19 18 17 17 16 16 16 16 16 17 17 17 17 17 17 17 17 17 17 17 17 17 17 17 17 17 17 17 17 17 17 17 17 17
21 22 24 25 23 23 24 24 23 23 22 22 22 21 19 18 18 17 17 16 16 16 16 16 17 17 17 17 17 17 17 17 17 17 17 17 17 17 17 17 17 17 17 17 17 17 17 17 17
22 24 24 24 23 23 24 23 23 23 23 22 22 21 19 17 17 17 17 16 16 16 16 16 17 17 17 17 17 17 17 17 17 17 17 17 17 17 17 17 17 17 17 17 17 17 17 17 17
23 25 24 23 23 23 23 23 23 23 22 21 21 21 19 17 17 17 16 16 16 16 16 16 17 17 17 17 17 17 17 17 17 17 17 17 17 16 16 17 17 17 17 17 16 17 17 17 16
23 24 24 23 23 23 23 22 23 23 22 21 21 21 19 17 17 17 16 16 16 16 16 16 16 16 17 17 17 17 17 17 17 17 17 17 17 17 16 16 16 16 16 16 16 16 16 16 16
22 24 23 23 23 23 22 22 21 22 21 20 20 21 19 17 17 17 16 16 16 16 16 16 16 16 16 16 17 17 17 17 17 17 17 17 17 16 16 16 16 16 16 16 16 16 16 16 16
22 24 23 23 23 22 22 22 21 20 20 19 19 19 18 17 17 17 17 16 16 16 16 16 16 16 16 16 16 16 17 17 17 16 17 16 16 16 16 16 16 16 16 16 16 16 16 16 16
23 23 23 23 23 23 22 22 21 21 21 20 19 18 17 17 17 17 17 17 17 16 16 16 16 16 16 16 16 16 16 16 16 16 16 16 16 16 16 16 16 16 16 16 16 16 16 16 15
23 23 22 22 22 22 22 21 21 21 21 20 19 18 17 17 17 17 17 17 17 16 16 16 16 16 16 16 16 16 16 16 16 16 16 16 16 16 16 16 16 16 16 16 16 15 15 15 15
22 22 22 22 21 21 21 21 20 20 20 19 19 18 17 17 17 17 17 17 16 16 16 16 16 16 16 16 16 16 16 16 16 16 16 16 16 16 15 15 15 15 15 15 15 15 15 15 15
22 22 21 20 20 20 20 20 20 19 19 18 18 18 17 17 17 17 17 16 16 16 16 16 16 16 16 16 16 16 16 16 16 16 15 15 15 15 15 15 15 15 15 15 15 15 15 15 15
22 21 21 21 20 20 20 20 20 19 18 18 18 17 17 17 17 17 17 16 16 16 16 16 16 16 16 16 16 16 15 15 15 15 15 15 15 15 15 15 15 15 15 15 15 15 15 14 14
21 22 21 21 21 20 21 20 20 19 18 18 18 17 17 17 16 16 16 16 16 16 16 16 16 16 16 16 16 15 15 15 15 15 15 15 15 15 15 15 15 15 15 14 14 14 14 14 14
23 22 21 21 21 20 21 20 20 18 18 18 18 17 17 16 16 16 16 16 16 16 16 16 16 16 16 16 15 15 15 15 15 15 15 15 15 15 15 14 14 14 14 14 14 14 14 14 14
22 22 22 21 21 21 21 20 20 18 18 19 18 18 17 17 17 16 16 16 16 16 16 16 16 16 16 15 15 15 15 15 15 15 15 15 14 14 14 14 14 14 14 14 14 13 13 13 13
22 22 22 21 21 21 20 20 20 19 18 19 19 18 18 17 17 17 16 16 16 16 16 16 16 16 16 15 15 15 15 14 14 14 14 14 14 14 14 14 14 14 13 13 13 13 13 13 13
23 22 22 21 21 20 20 20 20 19 18 19 19 18 18 18 17 17 16 16 16 16 16 15 15 15 15 15 15 15 14 14 14 14 14 14 14 14 14 14 14 13 13 13 13 13 13 13 13
22 22 21 21 20 20 20 20 20 19 19 18 18 18 18 18 17 16 16 16 16 15 15 15 15 15 15 15 15 15 14 14 14 14 14 14 14 14 14 13 13 13 13 13 13 12 12 12 12
22 22 22 21 20 20 20 20 20 20 19 18 18 18 18 17 17 17 16 16 16 15 15 15 15 15 15 15 15 14 14 14 14 14 14 14 14 14 13 13 13 13 13 13 12 12 12 12 12
22 22 21 21 21 21 20 21 21 21 20 19 18 18 18 17 17 17 16 16 15 15 15 15 15 15 15 15 14 14 14 14 14 14 14 14 14 13 13 13 13 13 12 12 12 12 12 12 12
21 21 21 21 21 21 21 21 21 20 20 20 19 18 17 17 17 16 16 15 16 15 15 15 15 15 15 14 14 14 14 14 14 14 13 13 13 13 13 13 13 12 12 12 12 12 12 12 12
21 21 21 21 21 21 21 21 21 21 20 21 20 18 17 17 16 15 15 15 15 15 15 15 14 15 14 14 14 14 14 14 13 13 13 13 13 13 13 13 13 12 12 12 12 12 12 11 11
21 21 21 21 21 21 21 20 21 21 20 20 19 18 17 16 16 15 15 15 15 15 15 15 14 14 14 14 14 14 13 13 13 13 13 13 13 13 13 13 12 12 12 12 12 12 11 11 11
21 21 21 20 21 21 20 20 21 20 19 19 18 18 17 16 15 15 15 14 15 15 15 15 14 14 14 14 14 13 13 13 13 13 13 12 12 12 12 12 12 12 12 12 12 11 11 11 11
21 21 21 21 21 21 21 21 21 20 19 19 18 17 17 16 15 15 14 14 14 14 14 14 14 14 14 14 13 13 13 13 13 13 12 12 12 12 12 12 12 12 11 11 11 11 11 11 11
20 21 20 20 20 20 21 21 21 20 20 19 18 17 16 16 15 14 14 14 14 14 14 14 14 13 13 13 13 13 13 13 13 12 12 12 12 12 12 12 12 11 11 11 11 11 11 11 11
19 19 20 20 20 20 20 21 20 20 20 19 19 18 16 15 15 14 14 14 14 14 14 14 13 13 13 13 13 13 13 12 12 12 12 12 12 11 11 11 11 11 11 11 11 11 11 10 10
19 19 19 19 20 20 20 20 20 19 19 18 18 17 16 15 14 14 13 13 13 13 13 13 13 13 13 13 13 12 12 12 12 12 11 11 11 11 11 11 11 11 11 11 10 10 10 10 10
Wind_Speed
3 2 2 2 1 4 7 5 5 5 5 6 6 5 7 7 5 5 4 4 4 5 6 7 8 8 8 9 10 10 10 11 11 12 12 12 12 11 10 9 9 10 9 9 9 9 9 9 8
1 1 2 1 1 5 6 5 6 6 6 6 6 6 7 7 6 6 4 4 5 6 7 8 9 8 9 9 10 10 11 11 11 12 12 13 13 12 11 10 10 10 10 10 10 10 10 9 9
1 1 1 1 3 5 7 6 8 8 6 3 5 5 5 5 5 5 5 6 6 6 7 9 8 8 9 9 10 11 11 11 11 12 12 13 12 12 11 11 11 11 11 11 11 10 10 10 10
1 1 1 4 8 6 6 7 7 7 5 4 5 6 6 5 4 6 7 6 7 7 7 9 8 8 9 9 10 11 11 11 11 11 12 12 12 11 11 11 11 11 11 11 11 11 11 10 10
0 1 4 6 7 6 6 5 5 5 5 5 5 7 6 5 6 8 7 6 7 7 7 9 9 9 9 9 10 10 11 11 11 11 12 12 12 13 11 12 11 12 12 12 11 11 10 10 10
1 1 4 6 7 7 6 5 5 6 6 5 5 7 6 6 7 7 7 7 7 7 7 8 9 8 8 9 9 10 10 10 11 11 12 12 13 13 13 13 13 13 13 12 12 11 10 10 10
1 2 4 7 7 6 5 5 4 5 5 4 3 5 6 6 6 7 7 7 7 7 7 7 7 7 8 8 9 9 10 10 11 11 12 12 12 13 13 13 13 13 12 12 11 11 11 10 10
1 3 5 6 6 5 5 5 4 3 4 4 2 4 6 7 7 7 7 7 7 6 6 6 6 6 6 7 8 9 9 10 10 10 10 10 10 11 11 12 12 12 12 11 11 10 10 10 10
1 3 4 5 5 5 6 5 4 4 6 5 4 5 7 10 8 8 7 6 6 6 5 5 5 5 6 6 7 7 8 8 7 8 8 6 7 9 9 12 12 11 11 10 10 10 9 7 8
1 2 3 3 4 6 6 5 5 5 5 5 5 7 9 10 8 7 6 5 5 5 5 4 4 5 5 5 5 5 5 6 6 6 7 6 7 7 8 10 10 10 9 9 9 7 5 4 5
2 2 4 4 5 6 6 5 4 5 4 3 5 7 9 8 7 6 6 5 5 5 5 4 4 4 4 4 4 4 4 5 5 6 7 6 6 6 6 6 6 6 6 7 6 5 6 5 5
4 4 4 4 5 5 5 5 4 3 3 3 5 7 8 8 6 5 5 5 4 4 4 4 3 4 4 4 4 3 3 4 4 5 6 5 5 5 5 5 6 5 5 5 5 5 6 5 5
5 5 6 6 6 5 5 4 4 3 3 4 7 8 7 6 6 5 4 5 4 4 4 4 3 3 3 4 3 3 4 4 4 4 5 6 4 4 4 4 5 5 5 4 4 5 6 5 5
6 7 6 5 5 4 5 3 3 3 4 6 7 6 6 5 5 5 4 4 3 3 3 3 3 3 3 3 3 3 3 3 3 4 4 5 4 4 4 4 4 5 4 4 4 5 4 4 4
8 7 5 3 3 3 3 2 3 3 5 5 6 6 5 5 5 4 4 3 3 3 3 3 2 3 3 3 3 3 2 3 3 3 3 4 4 4 4 3 4 4 4 4 4 4 3 3 3
5 5 3 2 2 3 4 3 3 3 5 4 4 5 5 5 5 4 3 3 3 3 3 4 2 3 3 3 2 3 3 3 3 3 3 3 3 4 4 3 3 4 3 3 3 3 3 3 3
5 5 4 4 2 3 4 3 3 4 5 5 5 5 5 5 4 4 4 3 3 3 3 4 3 3 3 3 3 3 3 3 3 2 2 3 3 3 3 3 3 3 2 2 3 3 3 3 3
6 5 5 4 4 4 5 4 3 4 6 6 6 5 5 5 5 5 4 3 3 3 3 4 4 3 3 2 2 2 3 2 2 2 2 2 2 3 2 2 2 2 2 2 2 3 3 2 3
4 5 5 4 3 4 5 5 4 5 6 6 6 6 6 6 5 4 4 4 4 4 4 4 4 4 3 2 2 2 1 1 2 2 3 2 2 2 2 1 2 2 1 2 2 2 2 2 2
6 6 5 4 4 4 5 6 5 6 7 7 7 6 6 6 6 5 5 5 5 5 4 4 4 4 3 2 2 1 1 1 1 1 2 2 2 2 1 1 1 1 1 1 2 1 1 2 2
7 7 6 4 4 6 5 7 7 6 7 7 7 7 6 7 7 7 6 6 5 5 5 4 5 4 3 3 2 2 2 1 1 0 0 1 2 2 2 1 1 1 1 1 1 1 1 2 2
6 5 6 6 7 5 6 5 6 7 7 7 7 7 7 6 7 7 6 6 6 6 5 5 5 4 4 4 3 3 2 1 1 1 1 1 1 1 2 2 2 1 1 1 1 1 2 2 2
4 3 6 7 7 7 7 7 4 6 7 8 8 8 7 6 6 6 6 6 6 6 5 5 5 4 4 4 4 3 2 1 1 1 1 1 1 1 1 1 2 2 1 2 2 2 2 2 3
5 5 5 6 7 8 7 7 4 5 6 5 6 7 7 6 6 5 5 5 5 5 5 5 5 4 4 4 4 4 3 2 1 1 1 1 1 1 1 2 2 2 2 2 2 2 3 3 3
7 6 5 5 6 6 3 6 5 2 4 5 5 6 7 6 6 6 6 6 5 6 6 6 6 5 5 4 4 4 4 3 3 3 2 2 2 2 2 2 3 3 2 2 2 3 3 3 3
9 9 6 5 6 4 5 7 3 1 3 4 5 5 6 6 6 6 6 6 6 6 6 6 6 6 5 5 4 4 4 3 3 3 2 3 3 3 3 3 3 3 3 3 2 3 3 3 4
6 8 7 7 7 7 6 5 4 3 4 4 4 4 5 6 6 6 6 6 6 6 5 6 6 5 5 5 4 4 4 3 3 3 3 3 3 3 4 4 4 3 3 3 3 3 3 4 4
4 5 5 6 6 7 7 7 4 5 5 5 5 5 5 5 6 6 6 6 5 5 5 5 6 6 5 4 4 3 4 4 3 3 3 3 3 3 3 4 3 3 3 3 3 4 4 4 4
4 5 6 6 6 6 7 4 1 3 5 5 6 5 5 6 6 6 5 5 5 4 4 5 5 4 4 4 3 3 3 3 3 3 3 3 3 3 3 4 4 4 4 4 4 4 4 5 5
6 7 8 7 8 8 8 5 1 2 3 4 5 4 4 5 5 5 5 5 5 5 4 4 4 4 4 4 4 3 2 2 3 3 3 3 3 3 3 4 4 4 4 4 4 5 5 5 5
Wind_Direction
209 215 231 239 183 100 87 83 88 98 84 70 65 67 71 53 42 77 87 78 74 72 72 78 68 67 66 65 68 70 69 68 67 65 65 64 68 72 73 74 73 71 73 77 75 75 69 66 63
275 249 244 252 138 116 93 92 93 85 98 103 82 76 76 69 60 90 98 89 86 76 71 69 68 65 67 66 69 68 68 69 68 66 65 65 66 69 72 73 74 72 74 74 72 70 70 65 62
177 281 335 90 94 97 106 104 101 99 102 99 89 69 62 69 78 93 93 107 94 82 77 75 66 67 67 65 66 69 70 71 70 69 67 65 64 66 69 70 72 73 74 73 69 67 69 65 63
238 186 108 105 98 83 101 113 118 120 104 82 98 89 78 58 73 95 107 107 97 88 85 82 72 71 69 66 66 69 69 70 71 71 70 67 64 66 68 70 70 73 73 70 67 64 65 67 65
264 132 123 115 102 97 100 111 127 118 105 95 97 96 89 72 86 104 108 101 96 89 87 88 76 72 72 69 66 68 69 67 69 70 70 68 65 63 68 68 68 69 72 69 66 62 62 65 65
122 144 142 129 117 110 109 110 114 104 102 99 100 103 89 96 104 106 104 98 93 90 88 91 88 77 73 71 67 66 68 68 68 69 70 70 67 65 63 64 65 66 67 67 66 63 62 64 64
101 126 129 131 129 122 110 109 110 111 102 89 98 106 112 110 109 112 106 100 93 90 87 87 90 92 87 76 69 69 69 67 68 69 70 71 71 69 65 64 64 66 66 65 64 61 58 61 63
62 135 138 142 144 127 122 122 103 107 97 86 93 113 128 134 127 119 111 105 97 90 83 80 81 82 88 88 81 78 74 70 71 71 71 75 80 79 73 70 66 66 65 63 62 61 60 61 64
222 161 155 150 153 133 134 132 113 97 110 99 83 77 109 128 131 124 115 108 99 91 87 83 74 73 76 81 88 88 86 79 83 83 81 80 75 72 73 65 65 64 61 61 60 60 62 64 75
160 166 131 123 138 134 133 130 135 136 118 112 101 98 119 132 137 132 123 118 106 96 92 90 83 80 78 77 83 75 76 76 68 70 69 64 63 63 65 76 69 66 63 66 63 60 65 52 64
106 129 122 123 123 131 136 126 124 152 131 134 137 133 138 142 143 138 130 125 110 100 89 81 79 79 79 75 72 71 69 69 65 61 63 62 63 66 62 65 71 67 61 54 58 49 44 45 50
119 98 119 126 124 133 142 141 130 118 102 107 130 137 144 150 149 145 136 123 114 105 97 86 82 82 79 79 78 81 78 73 69 64 59 57 56 54 53 52 51 49 44 40 40 43 45 45 51
126 110 104 111 114 116 123 134 134 123 105 116 125 130 143 150 151 146 133 123 119 111 103 94 87 88 84 77 76 84 79 74 78 68 61 58 54 52 51 53 51 46 41 39 40 41 41 38 41
123 120 114 117 120 121 126 135 166 147 136 137 137 140 151 152 153 147 141 134 128 127 117 106 101 95 94 93 88 80 81 86 81 76 68 61 59 56 49 49 47 44 39 37 39 40 37 36 39
133 128 123 125 143 155 167 172 188 151 151 153 152 152 155 159 159 158 154 150 144 142 135 116 112 108 104 93 82 78 81 87 81 76 64 58 54 53 50 44 46 43 41 41 42 40 39 41 39
169 177 175 149 160 177 214 199 166 166 175 173 168 165 168 171 175 171 162 157 146 139 134 122 120 121 111 99 90 91 91 87 80 72 57 52 50 49 50 45 43 40 39 38 35 28 29 31 25
201 200 191 175 184 198 214 212 192 184 197 197 191 186 186 186 189 184 178 171 160 152 145 133 126 124 116 105 95 88 92 85 79 71 58 49 46 41 51 43 34 34 34 32 27 24 14 17 11
201 208 207 200 181 199 212 221 210 202 210 215 208 203 202 201 197 189 183 174 165 157 153 139 129 128 121 117 112 98 92 85 76 63 47 40 38 39 46 40 28 24 20 22 23 22 16 9 356
209 217 221 208 187 213 221 236 232 202 209 219 219 217 213 208 196 182 176 172 169 163 163 151 142 142 139 137 142 127 122 107 88 58 36 28 19 23 43 21 19 6 358 2 8 14 11 13 1
210 218 225 204 189 218 227 246 237 216 216 222 226 225 222 212 198 181 180 176 179 177 177 170 161 156 153 157 153 145 138 132 94 67 49 26 18 11 21 7 359 360 345 358 11 18 352 3 350
222 235 235 231 208 214 235 242 225 213 217 220 226 227 225 214 205 192 188 187 187 190 191 185 175 165 164 161 140 131 123 107 99 99 78 6 6 5 353 340 341 337 319 342 334 326 330 325 324
234 238 235 224 230 235 233 258 222 210 210 221 225 222 223 215 208 201 194 190 193 197 195 195 185 174 166 165 160 160 167 186 259 270 241 281 317 337 335 332 320 313 315 305 294 299 295 289 299
242 214 222 233 244 251 231 253 236 196 220 227 220 214 213 209 203 202 199 196 195 193 193 197 191 181 172 179 178 194 199 215 230 256 280 270 278 291 295 303 298 299 298 291 292 286 286 275 284
191 197 209 222 239 248 236 242 251 207 221 221 214 212 210 204 199 197 188 187 186 183 184 188 188 187 182 190 196 205 203 210 216 250 272 275 271 271 268 271 279 286 291 288 283 272 274 280 277
211 231 235 228 230 243 209 237 249 219 215 224 217 210 206 199 195 192 185 183 181 179 182 185 188 189 187 194 205 210 214 221 226 239 249 262 266 268 275 268 267 276 278 276 277 269 274 274 274
220 232 246 259 257 254 215 236 234 188 221 228 218 207 197 195 194 192 188 186 185 184 185 187 188 193 194 200 211 214 215 226 234 241 251 259 265 269 276 274 268 270 273 272 272 272 276 279 276
227 225 248 266 267 259 233 229 237 207 222 221 211 202 194 192 192 193 187 188 188 186 189 193 192 195 198 204 209 216 215 218 229 242 249 260 273 283 279 271 268 264 267 269 268 270 275 278 277
265 230 222 241 257 255 246 241 239 218 225 217 213 209 199 189 189 192 191 191 189 189 190 190 196 198 202 205 207 217 216 217 226 241 255 264 274 284 281 275 275 266 262 261 258 270 274 272 274
202 214 228 240 252 263 264 255 250 242 228 224 219 214 202 193 190 191 191 190 186 185 185 187 191 193 196 199 203 212 217 219 219 235 258 267 267 275 279 280 279 273 268 269 259 261 266 267 271
242 236 231 242 245 248 267 269 126 254 256 243 235 226 209 199 193 191 187 185 185 187 188 191 190 190 193 194 197 208 210 220 230 243 260 269 271 276 283 282 277 279 275 276 277 265 263 266 273
Height
1510 1510 1510 1511 1509 1511 1518 1519 1516 1518 1520 1523 1523 1522 1523 1525 1527 1534 1535 1533 1533 1533 1532 1531 1531 1531 1530 1530 1529 1529 1528 1528 1527 1526 1525 1524 1523 1522 1523 1523 1523 1523 1523 1524 1524 1524 1524 1524 1524
1511 1510 1512 1511 1509 1517 1523 1518 1519 1520 1523 1525 1525 1525 1525 1529 1532 1534 1534 1534 1534 1534 1534 1533 1532 1532 1532 1531 1531 1531 1530 1530 1529 1528 1527 1526 1525 1524 1524 1524 1524 1524 1524 1525 1525 1525 1525 1525 1524
1511 1511 1514 1510 1512 1517 1522 1519 1520 1523 1525 1525 1526 1528 1529 1532 1534 1535 1535 1535 1535 1535 1535 1534 1534 1534 1533 1533 1533 1532 1532 1531 1531 1530 1529 1528 1527 1527 1526 1526 1526 1526 1526 1526 1526 1526 1526 1525 1525
1512 1514 1514 1512 1519 1519 1518 1520 1522 1524 1526 1527 1527 1529 1533 1535 1536 1536 1536 1537 1537 1537 1537 1536 1535 1535 1535 1535 1535 1534 1534 1533 1532 1532 1531 1530 1529 1528 1528 1528 1528 1527 1527 1527 1527 1527 1527 1527 1526
1513 1513 1513 1517 1520 1520 1520 1522 1523 1523 1525 1528 1528 1531 1535 1537 1537 1537 1537 1538 1538 1538 1538 1538 1537 1537 1537 1537 1536 1536 1535 1535 1534 1534 1533 1532 1531 1530 1530 1530 1529 1529 1529 1529 1529 1529 1528 1528 1527
1515 1512 1515 1521 1521 1521 1522 1524 1525 1525 1527 1529 1530 1532 1537 1538 1538 1538 1539 1539 1540 1540 1540 1540 1539 1539 1539 1538 1538 1537 1537 1536 1536 1535 1535 1534 1533 1532 1532 1532 1531 1531 1531 1530 1530 1530 1530 1529 1529
1515 1513 1516 1519 1523 1523 1525 1526 1526 1527 1529 1531 1532 1533 1537 1539 1540 1540 1540 1541 1541 1541 1541 1541 1541 1541 1540 1540 1539 1539 1538 1538 1538 1537 1536 1536 1535 1535 1534 1534 1533 1533 1532 1532 1532 1532 1531 1531 1530
1516 1515 1518 1519 1522 1524 1527 1528 1529 1530 1531 1534 1534 1534 1538 1540 1540 1541 1542 1542 1542 1543 1543 1543 1543 1543 1542 1542 1541 1540 1540 1540 1539 1539 1538 1538 1537 1537 1536 1536 1535 1535 1534 1534 1534 1533 1533 1532 1532
1516 1517 1519 1520 1522 1525 1527 1528 1531 1532 1533 1535 1536 1537 1539 1540 1541 1542 1543 1544 1544 1544 1544 1544 1544 1544 1544 1544 1542 1542 1542 1541 1541 1540 1540 1540 1540 1539 1539 1538 1537 1536 1536 1535 1535 1534 1534 1533 1533
1517 1517 1520 1521 1522 1524 1527 1529 1531 1532 1533 1535 1537 1538 1539 1540 1541 1542 1543 1544 1544 1545 1545 1545 1545 1545 1545 1544 1544 1544 1544 1543 1543 1542 1542 1541 1541 1540 1540 1539 1538 1538 1537 1537 1536 1535 1535 1535 1535
1518 1519 1521 1524 1525 1526 1528 1530 1531 1532 1533 1536 1537 1539 1540 1541 1542 1543 1544 1544 1545 1546 1545 1546 1546 1546 1546 1545 1545 1545 1544 1544 1544 1543 1543 1542 1542 1542 1541 1541 1540 1539 1539 1538 1537 1537 1537 1537 1536
1520 1522 1523 1525 1527 1528 1528 1530 1532 1533 1536 1537 1538 1539 1540 1541 1542 1543 1544 1545 1545 1546 1546 1546 1546 1546 1547 1546 1546 1546 1545 1545 1545 1544 1544 1544 1543 1543 1543 1542 1541 1541 1540 1539 1539 1538 1538 1537 1537
1521 1524 1526 1527 1528 1529 1530 1531 1533 1536 1537 1538 1538 1539 1540 1541 1542 1543 1544 1545 1545 1545 1546 1546 1546 1547 1547 1547 1546 1546 1546 1546 1546 1545 1545 1545 1544 1544 1544 1543 1542 1542 1541 1540 1539 1539 1538 1538 1538
1523 1525 1527 1528 1529 1531 1531 1533 1534 1536 1537 1538 1538 1539 1540 1541 1542 1543 1544 1544 1545 1545 1546 1546 1546 1547 1547 1547 1547 1547 1547 1546 1547 1546 1546 1546 1546 1545 1545 1544 1543 1542 1542 1541 1540 1539 1538 1538 1538
1524 1525 1527 1529 1530 1531 1532 1533 1534 1536 1537 1538 1538 1539 1540 1541 1542 1542 1543 1544 1545 1545 1546 1546 1546 1547 1547 1547 1547 1547 1547 1547 1547 1547 1547 1547 1547 1546 1546 1545 1544 1543 1542 1542 1541 1540 1539 1538 1537
1522 1523 1527 1529 1529 1531 1532 1534 1534 1536 1537 1537 1538 1538 1539 1541 1542 1542 1543 1544 1545 1545 1546 1546 1546 1546 1547 1547 1547 1548 1547 1548 1548 1548 1548 1548 1547 1547 1546 1545 1545 1544 1543 1542 1541 1540 1539 1538 1538
1520 1522 1525 1528 1529 1529 1530 1532 1533 1535 1536 1536 1537 1538 1539 1540 1541 1542 1542 1543 1544 1545 1545 1546 1546 1546 1547 1547 1547 1547 1548 1548 1548 1548 1548 1548 1548 1547 1547 1546 1545 1544 1543 1542 1541 1540 1539 1538 1537
1521 1520 1523 1526 1527 1529 1529 1530 1532 1534 1534 1534 1535 1536 1537 1538 1540 1540 1541 1542 1543 1544 1545 1546 1545 1546 1546 1546 1547 1547 1548 1548 1548 1548 1548 1548 1547 1547 1546 1546 1545 1544 1543 1542 1541 1540 1539 1538 1537
1517 1520 1523 1524 1526 1528 1528 1529 1529 1532 1533 1533 1533 1534 1535 1537 1538 1539 1540 1541 1542 1543 1544 1545 1545 1545 1545 1546 1547 1547 1548 1548 1548 1548 1548 1547 1547 1547 1546 1545 1545 1544 1543 1542 1541 1540 1539 1538 1537
1519 1521 1522 1524 1525 1526 1527 1527 1526 1528 1530 1531 1531 1532 1533 1535 1536 1537 1538 1539 1540 1541 1542 1544 1544 1545 1545 1546 1547 1547 1547 1547 1547 1547 1547 1547 1547 1546 1546 1545 1544 1543 1542 1541 1541 1539 1539 1538 1537
1518 1519 1520 1522 1525 1525 1525 1524 1523 1524 1527 1528 1529 1530 1530 1531 1533 1535 1536 1537 1538 1540 1541 1542 1543 1544 1544 1545 1546 1546 1546 1547 1547 1547 1546 1546 1546 1545 1545 1544 1544 1543 1542 1541 1540 1539 1538 1538 1537
1518 1517 1519 1522 1523 1521 1524 1523 1518 1518 1522 1524 1525 1526 1528 1529 1531 1532 1534 1535 1537 1538 1540 1541 1542 1543 1543 1544 1545 1545 1545 1545 1546 1546 1546 1545 1545 1545 1544 1543 1543 1542 1541 1540 1540 1539 1538 1537 1537
1516 1518 1519 1520 1519 1520 1520 1521 1514 1515 1518 1519 1521 1523 1525 1527 1528 1530 1532 1533 1535 1537 1538 1539 1541 1542 1542 1543 1543 1544 1544 1545 1545 1545 1545 1544 1544 1543 1543 1542 1541 1541 1540 1540 1539 1538 1537 1536 1536
1518 1519 1519 1518 1518 1522 1516 1519 1515 1511 1513 1514 1517 1520 1522 1525 1526 1528 1529 1531 1533 1534 1535 1537 1538 1539 1540 1541 1542 1542 1543 1543 1543 1543 1543 1543 1542 1542 1541 1540 1540 1539 1539 1538 1537 1536 1536 1535 1534
1516 1518 1521 1522 1521 1517 1514 1517 1513 1508 1511 1513 1515 1517 1520 1522 1524 1526 1527 1528 1530 1531 1533 1535 1536 1537 1538 1539 1540 1540 1541 1541 1541 1541 1541 1541 1540 1540 1539 1539 1538 1538 1537 1536 1535 1535 1534 1533 1532
1513 1513 1520 1524 1519 1513 1515 1514 1508 1508 1511 1513 1514 1516 1518 1520 1522 1523 1524 1526 1528 1529 1530 1532 1533 1535 1536 1537 1538 1538 1539 1539 1539 1539 1539 1539 1538 1538 1537 1537 1536 1535 1535 1534 1533 1532 1532 1531 1530
1512 1511 1510 1513 1512 1515 1508 1507 1506 1507 1509 1511 1512 1514 1515 1517 1519 1521 1522 1524 1525 1527 1528 1529 1531 1532 1533 1534 1535 1536 1536 1536 1537 1537 1537 1536 1536 1535 1534 1534 1533 1533 1532 1531 1531 1530 1529 1529 1528
1513 1510 1512 1515 1518 1516 1509 1507 1505 1505 1506 1508 1510 1511 1513 1515 1517 1518 1520 1521 1523 1524 1526 1527 1528 1530 1531 1532 1533 1533 1534 1534 1534 1534 1534 1534 1533 1532 1532 1531 1530 1530 1529 1528 1528 1527 1526 1526 1525
1516 1515 1512 1511 1511 1515 1513 1507 1500 1502 1504 1505 1507 1509 1511 1513 1514 1516 1518 1519 1521 1522 1523 1525 1526 1527 1528 1529 1530 1531 1531 1532 1532 1531 1531 1531 1530 1529 1529 1528 1527 1527 1526 1526 1525 1524 1523 1523 1522
1512 1511 1511 1514 1511 1510 1511 1509 1501 1503 1504 1505 1506 1508 1510 1511 1513 1514 1516 1517 1518 1520 1521 1522 1523 1525 1525 1527 1527 1528 1529 1529 1529 1529 1528 1528 1527 1526 1526 1525 1524 1524 1523 1522 1522 1521 1520 1520 1519